Time,TemperatureF,DewpointF,PressureIn,WindDirection,WindDirectionDegrees,WindSpeedMPH,WindSpeedGustMPH,Humidity,HourlyPrecipIn,Conditions,Clouds,dailyrainin,SoftwareType,DateUTC
2013-02-28 00:01:00,49.0,-1.0,-100.00,WNW,301,8.0,19.0,12,-99.99,,,-99.99,,2013-02-28 08:01:00,
2013-02-28 00:11:00,49.0,-1.0,-100.00,NW,307,7.0,18.0,12,-99.99,,,-99.99,,2013-02-28 08:11:00,
2013-02-28 00:21:00,49.0,-3.0,-100.00,WNW,301,10.0,18.0,11,-99.99,,,-99.99,,2013-02-28 08:21:00,
2013-02-28 00:31:00,49.0,-1.0,-100.00,WNW,302,9.0,19.0,12,-99.99,,,-99.99,,2013-02-28 08:31:00,
2013-02-28 00:42:00,49.0,-1.0,-100.00,WNW,300,9.0,16.0,12,-99.99,,,-99.99,,2013-02-28 08:42:00,
2013-02-28 00:52:00,49.0,-3.0,-100.00,WNW,303,8.0,16.0,11,-99.99,,,-99.99,,2013-02-28 08:52:00,
2013-02-28 01:02:00,49.0,-1.0,-100.00,WNW,291,6.0,12.0,12,-99.99,,,-99.99,,2013-02-28 09:02:00,
2013-02-28 01:11:00,49.0,-1.0,-100.00,WNW,289,8.0,16.0,12,-99.99,,,-99.99,,2013-02-28 09:11:00,
2013-02-28 01:21:00,50.0,-1.0,-100.00,WNW,283,7.0,19.0,12,-99.99,,,-99.99,,2013-02-28 09:21:00,
2013-02-28 01:31:00,49.0,-1.0,-100.00,WNW,301,6.0,14.0,12,-99.99,,,-99.99,,2013-02-28 09:31:00,
2013-02-28 01:41:00,49.0,-1.0,-100.00,WNW,285,6.0,18.0,12,-99.99,,,-99.99,,2013-02-28 09:41:00,
2013-02-28 01:52:00,50.0,-1.0,-100.00,WSW,252,6.0,15.0,12,-99.99,,,-99.99,,2013-02-28 09:52:00,
2013-02-28 02:01:00,50.0,-1.0,-100.00,WSW,239,5.0,20.0,12,-99.99,,,-99.99,,2013-02-28 10:01:00,
2013-02-28 02:11:00,50.0,-1.0,-100.00,SSW,213,8.0,17.0,12,-99.99,,,-99.99,,2013-02-28 10:11:00,
2013-02-28 02:21:00,50.0,-1.0,-100.00,SW,228,8.0,15.0,12,-99.99,,,-99.99,,2013-02-28 10:21:00,
2013-02-28 02:31:00,50.0,-1.0,-100.00,SSW,211,7.0,16.0,12,-99.99,,,-99.99,,2013-02-28 10:31:00,
2013-02-28 02:42:00,49.0,-1.0,-100.00,SW,214,7.0,16.0,12,-99.99,,,-99.99,,2013-02-28 10:42:00,
2013-02-28 02:51:00,49.0,-1.0,-100.00,SW,216,9.0,18.0,12,-99.99,,,-99.99,,2013-02-28 10:51:00,
2013-02-28 03:01:00,49.0,-1.0,-100.00,SSW,210,8.0,22.0,12,-99.99,,,-99.99,,2013-02-28 11:01:00,
2013-02-28 03:11:00,49.0,-1.0,-100.00,South,186,8.0,23.0,12,-99.99,,,-99.99,,2013-02-28 11:11:00,
2013-02-28 03:21:00,49.0,-1.0,-100.00,South,172,6.0,20.0,12,-99.99,,,-99.99,,2013-02-28 11:21:00,
2013-02-28 03:31:00,49.0,-1.0,-100.00,SE,142,9.0,18.0,12,-99.99,,,-99.99,,2013-02-28 11:31:00,
2013-02-28 03:41:00,49.0,-1.0,-100.00,SE,143,9.0,23.0,12,-99.99,,,-99.99,,2013-02-28 11:41:00,
2013-02-28 03:52:00,49.0,-1.0,-100.00,SE,131,10.0,25.0,12,-99.99,,,-99.99,,2013-02-28 11:52:00,
2013-02-28 04:01:00,49.0,-1.0,-100.00,ESE,111,10.0,27.0,12,-99.99,,,-99.99,,2013-02-28 12:01:00,
2013-02-28 04:11:00,49.0,-1.0,-100.00,ESE,121,9.0,27.0,12,-99.99,,,-99.99,,2013-02-28 12:11:00,
2013-02-28 04:21:00,49.0,-1.0,-100.00,SE,126,10.0,26.0,12,-99.99,,,-99.99,,2013-02-28 12:21:00,
2013-02-28 04:31:00,49.0,-1.0,-100.00,East,99,11.0,24.0,12,-99.99,,,-99.99,,2013-02-28 12:31:00,
2013-02-28 04:42:00,49.0,-1.0,-100.00,ESE,109,11.0,29.0,12,-99.99,,,-99.99,,2013-02-28 12:42:00,
2013-02-28 04:52:00,49.0,-1.0,-100.00,SE,126,8.0,23.0,12,-99.99,,,-99.99,,2013-02-28 12:52:00,
2013-02-28 05:01:00,49.0,-1.0,-100.00,ESE,104,10.0,29.0,12,-99.99,,,-99.99,,2013-02-28 13:01:00,
2013-02-28 05:11:00,49.0,-1.0,-100.00,ESE,104,10.0,29.0,12,-99.99,,,-99.99,,2013-02-28 13:11:00,
2013-02-28 05:21:00,49.0,-1.0,-100.00,ESE,104,10.0,29.0,12,-99.99,,,-99.99,,2013-02-28 13:21:00,
2013-02-28 05:31:00,49.0,-1.0,-100.00,SE,139,8.0,19.0,12,-99.99,,,-99.99,,2013-02-28 13:31:00,
2013-02-28 05:42:00,49.0,-1.0,-100.00,ESE,116,9.0,26.0,12,-99.99,,,-99.99,,2013-02-28 13:42:00,
2013-02-28 05:52:00,49.0,-1.0,-100.00,SE,128,12.0,24.0,12,-99.99,,,-99.99,,2013-02-28 13:52:00,
2013-02-28 06:01:00,49.0,-1.0,-100.00,ESE,113,11.0,26.0,12,-99.99,,,-99.99,,2013-02-28 14:01:00,
2013-02-28 06:11:00,49.0,-1.0,-100.00,ESE,123,11.0,25.0,12,-99.99,,,-99.99,,2013-02-28 14:11:00,
2013-02-28 06:21:00,49.0,-1.0,-100.00,SSE,149,11.0,31.0,12,-99.99,,,-99.99,,2013-02-28 14:21:00,
2013-02-28 06:31:00,49.0,-1.0,-100.00,ESE,106,11.0,28.0,12,-99.99,,,-99.99,,2013-02-28 14:31:00,
2013-02-28 06:42:00,49.0,-1.0,-100.00,SE,144,11.0,26.0,12,-99.99,,,-99.99,,2013-02-28 14:42:00,
2013-02-28 06:52:00,49.0,-1.0,-100.00,ESE,123,11.0,31.0,12,-99.99,,,-99.99,,2013-02-28 14:52:00,
2013-02-28 07:01:00,49.0,-1.0,-100.00,ESE,113,11.0,32.0,12,-99.99,,,-99.99,,2013-02-28 15:01:00,
2013-02-28 07:11:00,49.0,-1.0,-100.00,ESE,111,10.0,31.0,12,-99.99,,,-99.99,,2013-02-28 15:11:00,
2013-02-28 07:21:00,49.0,-1.0,-100.00,SE,134,12.0,30.0,12,-99.99,,,-99.99,,2013-02-28 15:21:00,
2013-02-28 07:31:00,50.0,-1.0,-100.00,ESE,122,10.0,31.0,12,-99.99,,,-99.99,,2013-02-28 15:31:00,
2013-02-28 07:41:00,50.0,-1.0,-100.00,ESE,122,10.0,31.0,12,-99.99,,,-99.99,,2013-02-28 15:41:00,
2013-02-28 07:52:00,50.0,-1.0,-100.00,SE,137,10.0,26.0,12,-99.99,,,-99.99,,2013-02-28 15:52:00,
2013-02-28 08:01:00,50.0,-1.0,-100.00,ESE,116,11.0,24.0,12,-99.99,,,-99.99,,2013-02-28 16:01:00,
2013-02-28 08:11:00,51.0,0.0,-100.00,East,90,8.0,20.0,12,-99.99,,,-99.99,,2013-02-28 16:11:00,
2013-02-28 08:21:00,52.0,1.0,-100.00,SSE,163,7.0,17.0,12,-99.99,,,-99.99,,2013-02-28 16:21:00,
2013-02-28 08:31:00,52.0,1.0,-100.00,SSE,163,7.0,17.0,12,-99.99,,,-99.99,,2013-02-28 16:31:00,
2013-02-28 08:42:00,51.0,0.0,-100.00,NNW,330,9.0,20.0,12,-99.99,,,-99.99,,2013-02-28 16:42:00,
2013-02-28 08:52:00,52.0,1.0,-100.00,NNW,331,8.0,20.0,12,-99.99,,,-99.99,,2013-02-28 16:52:00,
2013-02-28 09:01:00,52.0,1.0,-100.00,NW,305,6.0,27.0,12,-99.99,,,-99.99,,2013-02-28 17:01:00,
2013-02-28 09:11:00,52.0,1.0,-100.00,WNW,289,8.0,18.0,12,-99.99,,,-99.99,,2013-02-28 17:11:00,
2013-02-28 09:21:00,53.0,2.0,-100.00,SW,223,5.0,12.0,12,-99.99,,,-99.99,,2013-02-28 17:21:00,
2013-02-28 09:32:00,53.0,2.0,-100.00,South,184,8.0,18.0,12,-99.99,,,-99.99,,2013-02-28 17:32:00,
2013-02-28 09:41:00,53.0,2.0,-100.00,South,184,8.0,18.0,12,-99.99,,,-99.99,,2013-02-28 17:41:00,
2013-02-28 09:52:00,54.0,1.0,-100.00,SE,131,10.0,26.0,11,-99.99,,,-99.99,,2013-02-28 17:52:00,
2013-02-28 10:01:00,54.0,1.0,-100.00,SE,131,10.0,26.0,11,-99.99,,,-99.99,,2013-02-28 18:01:00,
2013-02-28 10:11:00,55.0,1.0,-100.00,South,175,7.0,30.0,11,-99.99,,,-99.99,,2013-02-28 18:11:00,
2013-02-28 10:21:00,55.0,1.0,-100.00,SE,126,9.0,24.0,11,-99.99,,,-99.99,,2013-02-28 18:21:00,
2013-02-28 10:31:00,55.0,1.0,-100.00,SE,134,9.0,25.0,11,-99.99,,,-99.99,,2013-02-28 18:31:00,
2013-02-28 10:42:00,56.0,2.0,-100.00,ESE,116,9.0,26.0,11,-99.99,,,-99.99,,2013-02-28 18:42:00,
2013-02-28 10:52:00,56.0,2.0,-100.00,SSW,211,8.0,27.0,11,-99.99,,,-99.99,,2013-02-28 18:52:00,
2013-02-28 11:01:00,56.0,2.0,-100.00,ESE,121,10.0,23.0,11,-99.99,,,-99.99,,2013-02-28 19:01:00,
2013-02-28 11:11:00,57.0,3.0,-100.00,SE,133,9.0,20.0,11,-99.99,,,-99.99,,2013-02-28 19:11:00,
2013-02-28 11:21:00,57.0,3.0,-100.00,SW,216,9.0,22.0,11,-99.99,,,-99.99,,2013-02-28 19:21:00,
2013-02-28 11:31:00,57.0,3.0,-100.00,SSE,168,8.0,22.0,11,-99.99,,,-99.99,,2013-02-28 19:31:00,
2013-02-28 11:41:00,57.0,3.0,-100.00,West,263,8.0,22.0,11,-99.99,,,-99.99,,2013-02-28 19:41:00,
2013-02-28 11:51:00,58.0,4.0,-100.00,West,268,5.0,12.0,11,-99.99,,,-99.99,,2013-02-28 19:51:00,
2013-02-28 12:01:00,59.0,5.0,-100.00,NW,306,6.0,17.0,11,-99.99,,,-99.99,,2013-02-28 20:01:00,
2013-02-28 12:11:00,59.0,5.0,-100.00,NW,312,8.0,19.0,11,-99.99,,,-99.99,,2013-02-28 20:11:00,
2013-02-28 12:21:00,58.0,4.0,-100.00,SSW,213,9.0,22.0,11,-99.99,,,-99.99,,2013-02-28 20:21:00,
2013-02-28 12:31:00,59.0,5.0,-100.00,South,171,8.0,25.0,11,-99.99,,,-99.99,,2013-02-28 20:31:00,
2013-02-28 12:41:00,59.0,5.0,-100.00,SSW,200,7.0,26.0,11,-99.99,,,-99.99,,2013-02-28 20:41:00,
2013-02-28 12:52:00,58.0,4.0,-100.00,ESE,106,8.0,23.0,11,-99.99,,,-99.99,,2013-02-28 20:52:00,
2013-02-28 13:01:00,59.0,5.0,-100.00,South,170,5.0,14.0,11,-99.99,,,-99.99,,2013-02-28 21:01:00,
2013-02-28 13:11:00,60.0,7.0,-100.00,SW,220,6.0,13.0,12,-99.99,,,-99.99,,2013-02-28 21:11:00,
2013-02-28 13:22:00,60.0,5.0,-100.00,WSW,258,6.0,13.0,11,-99.99,,,-99.99,,2013-02-28 21:22:00,
2013-02-28 13:31:00,59.0,5.0,-100.00,SW,235,6.0,17.0,11,-99.99,,,-99.99,,2013-02-28 21:31:00,
2013-02-28 13:41:00,60.0,5.0,-100.00,WNW,286,6.0,13.0,11,-99.99,,,-99.99,,2013-02-28 21:41:00,
2013-02-28 13:51:00,59.0,5.0,-100.00,NW,316,8.0,17.0,11,-99.99,,,-99.99,,2013-02-28 21:51:00,
2013-02-28 14:01:00,59.0,5.0,-100.00,NNW,343,6.0,14.0,11,-99.99,,,-99.99,,2013-02-28 22:01:00,
2013-02-28 14:11:00,59.0,5.0,-100.00,NNW,332,9.0,22.0,11,-99.99,,,-99.99,,2013-02-28 22:11:00,
2013-02-28 14:21:00,59.0,5.0,-100.00,NNW,336,9.0,20.0,11,-99.99,,,-99.99,,2013-02-28 22:21:00,
2013-02-28 14:31:00,59.0,5.0,-100.00,NNE,29,4.0,17.0,11,-99.99,,,-99.99,,2013-02-28 22:31:00,
2013-02-28 14:41:00,59.0,5.0,-100.00,NNW,334,5.0,13.0,11,-99.99,,,-99.99,,2013-02-28 22:41:00,
2013-02-28 14:52:00,59.0,6.0,-100.00,NNW,328,6.0,15.0,12,-99.99,,,-99.99,,2013-02-28 22:52:00,
2013-02-28 15:01:00,60.0,5.0,-100.00,NNW,339,5.0,12.0,11,-99.99,,,-99.99,,2013-02-28 23:01:00,
2013-02-28 15:11:00,60.0,5.0,-100.00,NNW,330,7.0,17.0,11,-99.99,,,-99.99,,2013-02-28 23:11:00,
2013-02-28 15:21:00,60.0,7.0,-100.00,NNW,328,7.0,14.0,12,-99.99,,,-99.99,,2013-02-28 23:21:00,
2013-02-28 15:31:00,60.0,5.0,-100.00,North,3,7.0,16.0,11,-99.99,,,-99.99,,2013-02-28 23:31:00,
2013-02-28 15:41:00,59.0,6.0,-100.00,ENE,70,6.0,16.0,12,-99.99,,,-99.99,,2013-02-28 23:41:00,
2013-02-28 15:52:00,60.0,7.0,-100.00,SE,126,3.0,11.0,12,-99.99,,,-99.99,,2013-02-28 23:52:00,
2013-02-28 16:01:00,60.0,7.0,-100.00,NE,40,5.0,12.0,12,-99.99,,,-99.99,,2013-03-01 00:01:00,
2013-02-28 16:11:00,60.0,7.0,-100.00,West,261,2.0,7.0,12,-99.99,,,-99.99,,2013-03-01 00:11:00,
2013-02-28 16:22:00,59.0,6.0,-100.00,NW,312,6.0,15.0,12,-99.99,,,-99.99,,2013-03-01 00:22:00,
2013-02-28 16:32:00,58.0,6.0,-100.00,NW,317,5.0,17.0,12,-99.99,,,-99.99,,2013-03-01 00:32:00,
2013-02-28 16:41:00,58.0,6.0,-100.00,NW,317,5.0,17.0,12,-99.99,,,-99.99,,2013-03-01 00:41:00,
2013-02-28 16:51:00,58.0,6.0,-100.00,NW,306,8.0,22.0,12,-99.99,,,-99.99,,2013-03-01 00:51:00,
2013-02-28 17:01:00,58.0,6.0,-100.00,NW,316,7.0,22.0,12,-99.99,,,-99.99,,2013-03-01 01:01:00,
2013-02-28 17:11:00,57.0,7.0,-100.00,WSW,241,5.0,10.0,13,-99.99,,,-99.99,,2013-03-01 01:11:00,
2013-02-28 17:21:00,56.0,6.0,-100.00,West,278,4.0,7.0,13,-99.99,,,-99.99,,2013-03-01 01:21:00,
2013-02-28 17:31:00,56.0,6.0,-100.00,WNW,294,4.0,9.0,13,-99.99,,,-99.99,,2013-03-01 01:31:00,
2013-02-28 17:42:00,56.0,6.0,-100.00,WNW,294,4.0,9.0,13,-99.99,,,-99.99,,2013-03-01 01:42:00,
2013-02-28 17:51:00,56.0,7.0,-100.00,West,272,4.0,11.0,14,-99.99,,,-99.99,,2013-03-01 01:51:00,
2013-02-28 18:01:00,55.0,5.0,-100.00,WNW,301,3.0,7.0,13,-99.99,,,-99.99,,2013-03-01 02:01:00,
2013-02-28 18:11:00,54.0,6.0,-100.00,SW,225,2.0,9.0,14,-99.99,,,-99.99,,2013-03-01 02:11:00,
2013-02-28 18:21:00,53.0,5.0,-100.00,WNW,299,4.0,12.0,14,-99.99,,,-99.99,,2013-03-01 02:21:00,
2013-02-28 18:31:00,53.0,4.0,-100.00,WNW,300,6.0,14.0,13,-99.99,,,-99.99,,2013-03-01 02:31:00,
2013-02-28 18:42:00,53.0,5.0,-100.00,West,273,6.0,11.0,14,-99.99,,,-99.99,,2013-03-01 02:42:00,
2013-02-28 18:52:00,53.0,4.0,-100.00,WNW,290,7.0,13.0,13,-99.99,,,-99.99,,2013-03-01 02:52:00,
2013-02-28 19:01:00,53.0,4.0,-100.00,WNW,290,7.0,13.0,13,-99.99,,,-99.99,,2013-03-01 03:01:00,
2013-02-28 19:11:00,54.0,4.0,-100.00,WNW,284,7.0,13.0,13,-99.99,,,-99.99,,2013-03-01 03:11:00,
2013-02-28 19:21:00,54.0,4.0,-100.00,WNW,284,7.0,13.0,13,-99.99,,,-99.99,,2013-03-01 03:21:00,
2013-02-28 19:32:00,53.0,4.0,-100.00,West,273,8.0,13.0,13,-99.99,,,-99.99,,2013-03-01 03:32:00,
2013-02-28 19:41:00,53.0,5.0,-100.00,WNW,286,4.0,7.0,14,-99.99,,,-99.99,,2013-03-01 03:41:00,
2013-02-28 19:51:00,52.0,4.0,-100.00,NW,306,4.0,7.0,14,-99.99,,,-99.99,,2013-03-01 03:51:00,
2013-02-28 20:01:00,52.0,4.0,-100.00,WNW,301,4.0,10.0,14,-99.99,,,-99.99,,2013-03-01 04:01:00,
2013-02-28 20:11:00,52.0,4.0,-100.00,WNW,291,4.0,9.0,14,-99.99,,,-99.99,,2013-03-01 04:11:00,
2013-02-28 20:21:00,52.0,4.0,-100.00,WNW,286,5.0,9.0,14,-99.99,,,-99.99,,2013-03-01 04:21:00,
2013-02-28 20:31:00,53.0,5.0,-100.00,WNW,285,6.0,11.0,14,-99.99,,,-99.99,,2013-03-01 04:31:00,
2013-02-28 20:41:00,53.0,5.0,-100.00,NW,318,6.0,12.0,14,-99.99,,,-99.99,,2013-03-01 04:41:00,
2013-02-28 20:51:00,52.0,4.0,-100.00,NW,314,3.0,7.0,14,-99.99,,,-99.99,,2013-03-01 04:51:00,
2013-02-28 21:01:00,52.0,4.0,-100.00,NW,305,3.0,9.0,14,-99.99,,,-99.99,,2013-03-01 05:01:00,
2013-02-28 21:11:00,52.0,4.0,-100.00,WNW,301,4.0,6.0,14,-99.99,,,-99.99,,2013-03-01 05:11:00,
2013-02-28 21:22:00,53.0,5.0,-100.00,NW,304,4.0,8.0,14,-99.99,,,-99.99,,2013-03-01 05:22:00,
2013-02-28 21:32:00,53.0,5.0,-100.00,NW,305,5.0,10.0,14,-99.99,,,-99.99,,2013-03-01 05:32:00,
2013-02-28 21:41:00,53.0,5.0,-100.00,NW,305,5.0,10.0,14,-99.99,,,-99.99,,2013-03-01 05:41:00,
2013-02-28 21:52:00,53.0,5.0,-100.00,WNW,291,5.0,12.0,14,-99.99,,,-99.99,,2013-03-01 05:52:00,
2013-02-28 22:01:00,53.0,5.0,-100.00,WSW,257,7.0,13.0,14,-99.99,,,-99.99,,2013-03-01 06:01:00,
2013-02-28 22:11:00,54.0,6.0,-100.00,West,263,4.0,9.0,14,-99.99,,,-99.99,,2013-03-01 06:11:00,
2013-02-28 22:21:00,54.0,6.0,-100.00,NNW,331,4.0,10.0,14,-99.99,,,-99.99,,2013-03-01 06:21:00,
2013-02-28 22:31:00,54.0,6.0,-100.00,South,176,6.0,14.0,14,-99.99,,,-99.99,,2013-03-01 06:31:00,
2013-02-28 22:42:00,54.0,4.0,-100.00,SE,136,7.0,21.0,13,-99.99,,,-99.99,,2013-03-01 06:42:00,
2013-02-28 22:52:00,55.0,5.0,-100.00,SE,131,7.0,16.0,13,-99.99,,,-99.99,,2013-03-01 06:52:00,
2013-02-28 23:01:00,55.0,5.0,-100.00,SE,131,7.0,16.0,13,-99.99,,,-99.99,,2013-03-01 07:01:00,
2013-02-28 23:11:00,55.0,5.0,-100.00,SE,132,6.0,16.0,13,-99.99,,,-99.99,,2013-03-01 07:11:00,
2013-02-28 23:21:00,54.0,6.0,-100.00,SE,144,9.0,17.0,14,-99.99,,,-99.99,,2013-03-01 07:21:00,
2013-02-28 23:32:00,54.0,6.0,-100.00,SE,132,8.0,17.0,14,-99.99,,,-99.99,,2013-03-01 07:32:00,
2013-02-28 23:42:00,54.0,4.0,-100.00,SE,130,10.0,19.0,13,-99.99,,,-99.99,,2013-03-01 07:42:00,
2013-02-28 23:51:00,54.0,4.0,-100.00,SE,137,8.0,18.0,13,-99.99,,,-99.99,,2013-03-01 07:51:00,